BNU-1 (44529 NORAD) Tracking and Keplerian Element Data

This shows tracking and keplerian element data for the satellite.

Feedback or suggestion? Click here.




ElementValue
Catalog44529
NameBNU-1
Epoch Orbit403
Epoch Day283.09284199
Epoch Year2019
RAAN356.6148
Inclination98.5757
Eccentricity0.0013905
Argument of Perigee185.0494
Mean Anonmoly175.0564
Mean Motion14.45114
Decay Rate6E-08
L11 44529U 19059B 19283.09284199 .00000006 00000-0 14700-4 0 9995
L22 44529 98.5757 356.6148 0013905 185.0494 175.0564 14.45114000 4034

Live tracking and technical data element details for BNU-1 (NORAD 44529). BNU-1 can be tracked NOW for your location showing map with azimuth and elevation plus other details from your city location.

Track the satellite on the map from your city or location and see movement details for azimuth, elevation, latitude, longitude, range, height, and movement on the map or in text.







IsCatalogInMostPopularTable: catalog: 44529, numindb: 35
Update: records affected: 1



GetName: 44529 BNU-1

Hit Count: updated at: Thu, 14 Nov 2019 05:43:48 GMT